Weather History for Volk, WI

Change the Weather History Date:

Monday, September 5, 2011

  Actual Average Record
Temperature  
Mean Temperature 51 °F -  
Max Temperature 66 °F 75 °F 88 °F (2007)
Min Temperature 37 °F 55 °F 37 °F (2011)
Degree Days  
Heating Degree Days 14    
Growing Degree Days 1 (Base 50)    
Moisture  
Dew Point 43 °F    
Average Humidity 96    
Maximum Humidity 100    
Minimum Humidity 50    
Precipitation  
Precipitation 0.00 in - - ()
Sea Level Pressure  
Sea Level Pressure 30.20 in    
Wind  
Wind Speed 4 mph (West)    
Max Wind Speed 9 mph    
Max Gust Speed -    
Visibility 3 miles    
Events Fog    
Averages and records for this station are not official NWS values.
T = Trace of Precipitation, MM = Missing Value Source: NWS Daily Summary

Daily Weather History Graph

Daily Weather History Graph

Search for Another Location

Airport:

Trip Planner

Search our weather history database for the weather conditions in past years. The results will help you decide how hot, cold, wet, or windy it might be!

Date:

Astronomy

Sep. 05, 2011 Rise Set
Actual Time 6:28 AM CDT 7:30 PM CDT
Civil Twilight 5:59 AM CDT 7:59 PM CDT
Nautical Twilight 5:23 AM CDT 8:34 PM CDT
Astronomical Twilight 4:46 AM CDT 9:11 PM CDT
Moon 3:25 PM CDT (9/5) No Moon Set
Length of Visible Light 14h 00m
Length of Day
13h 01m
First Quarter, 61% of the Moon is Illuminated
Sep 5
First Quarter
Sep 12
Full
Sep 20
Last Quarter
Sep 27
New
Oct 3
First Quarter

Hourly Weather History & Observations

Time (CDT) Temp. Windchill Dew Point Humidity Pressure Visibility Wind Dir Wind Speed Gust Speed Precip Events Conditions
12:55 AM 47.3 °F - 47.3 °F 100% 30.17 in 10.0 mi Calm Calm - N/A   Clear
1:55 AM 44.1 °F 40.8 °F 44.1 °F 100% 30.17 in 10.0 mi West 5.8 mph - N/A   Clear
2:55 AM 43.3 °F 39.9 °F 43.2 °F 99% 30.18 in 10.0 mi West 5.8 mph - N/A   Clear
3:55 AM 43.2 °F 39.7 °F 43.2 °F 100% 30.18 in 10.0 mi West 5.8 mph - N/A   Clear
4:17 AM 41.0 °F 38.0 °F 41.0 °F 100% 30.18 in 2.5 mi West 4.6 mph - N/A   Clear
4:18 AM 41.0 °F 38.0 °F 41.0 °F 100% 30.19 in 2.0 mi West 4.6 mph - N/A   Clear
4:19 AM 41.0 °F 38.0 °F 41.0 °F 100% 30.19 in 1.8 mi West 4.6 mph - N/A   Clear
4:20 AM 41.0 °F 37.1 °F 41.0 °F 100% 30.19 in 1.5 mi West 5.8 mph - N/A   Clear
4:21 AM 41.0 °F 37.1 °F 41.0 °F 100% 30.19 in 1.2 mi West 5.8 mph - N/A   Clear
4:23 AM 41.0 °F 37.1 °F 41.0 °F 100% 30.19 in 1.0 mi West 5.8 mph - N/A   Clear
4:27 AM 41.0 °F 37.1 °F 41.0 °F 100% 30.19 in 0.8 mi West 5.8 mph - N/A   Clear
4:33 AM 42.8 °F 39.3 °F 42.8 °F 100% 30.19 in 1.0 mi West 5.8 mph - N/A   Clear
4:43 AM 41.0 °F 36.4 °F 41.0 °F 100% 30.19 in 1.2 mi West 6.9 mph - N/A   Clear
4:44 AM 41.0 °F 36.4 °F 41.0 °F 100% 30.19 in 1.5 mi West 6.9 mph - N/A   Clear
4:45 AM 42.8 °F 38.6 °F 42.8 °F 100% 30.19 in 1.8 mi West 6.9 mph - N/A   Clear
4:46 AM 42.8 °F 38.6 °F 42.8 °F 100% 30.19 in 2.0 mi West 6.9 mph - N/A   Clear
4:47 AM 42.8 °F 38.6 °F 42.8 °F 100% 30.19 in 3.0 mi West 6.9 mph - N/A   Clear
4:55 AM 42.3 °F 38.6 °F 42.3 °F 100% 30.19 in 5.0 mi West 5.8 mph - N/A   Clear
4:59 AM 41.0 °F 37.1 °F 41.0 °F 100% 30.19 in 2.5 mi West 5.8 mph - N/A   Clear
5:01 AM 41.0 °F 37.1 °F 41.0 °F 100% 30.19 in 2.0 mi West 5.8 mph - N/A   Clear
5:03 AM 41.0 °F 37.1 °F 41.0 °F 100% 30.19 in 1.8 mi West 5.8 mph - N/A   Clear
5:06 AM 41.0 °F 37.1 °F 41.0 °F 100% 30.19 in 2.0 mi West 5.8 mph - N/A   Clear
5:15 AM 39.2 °F 35.0 °F 39.2 °F 100% 30.19 in 1.8 mi West 5.8 mph - N/A   Clear
5:17 AM 39.2 °F 35.0 °F 39.2 °F 100% 30.19 in 1.5 mi West 5.8 mph - N/A   Clear
5:20 AM 39.2 °F 35.9 °F 39.2 °F 100% 30.20 in 1.2 mi West 4.6 mph - N/A   Clear
5:25 AM 39.2 °F 35.0 °F 39.2 °F 100% 30.20 in 1.0 mi West 5.8 mph - N/A   Clear
5:28 AM 39.2 °F 35.0 °F 39.2 °F 100% 30.20 in 0.8 mi West 5.8 mph - N/A   Clear
5:38 AM 39.2 °F 35.9 °F 39.2 °F 100% 30.20 in 1.0 mi West 4.6 mph - N/A   Clear
5:41 AM 39.2 °F 35.9 °F 39.2 °F 100% 30.20 in 1.2 mi West 4.6 mph - N/A   Clear
5:47 AM 39.2 °F 35.0 °F 39.2 °F 100% 30.20 in 1.0 mi West 5.8 mph - N/A   Clear
5:52 AM 39.2 °F 35.0 °F 39.2 °F 100% 30.20 in 0.8 mi West 5.8 mph - N/A   Clear
5:55 AM 38.8 °F 34.6 °F 38.8 °F 100% 30.20 in 0.8 mi West 5.8 mph - N/A   Clear
5:57 AM 39.2 °F 35.0 °F 39.2 °F 100% 30.20 in 1.0 mi West 5.8 mph - N/A   Clear
6:08 AM 39.2 °F 35.0 °F 39.2 °F 100% 30.21 in 0.8 mi West 5.8 mph - N/A   Clear
6:13 AM 39.2 °F 35.0 °F 39.2 °F 100% 30.21 in 0.5 mi West 5.8 mph - N/A Fog Fog
6:26 AM 39.2 °F 35.0 °F 39.2 °F 100% 30.21 in 0.2 mi West 5.8 mph - N/A Fog Fog
6:55 AM 37.4 °F 33.8 °F 37.4 °F 100% 30.21 in 0.2 mi West 4.6 mph - N/A Fog Fog
7:19 AM 39.2 °F 35.0 °F 39.2 °F 100% 30.23 in 0.5 mi West 5.8 mph - N/A Fog Fog
7:25 AM 41.0 °F 38.0 °F 41.0 °F 100% 30.23 in 0.8 mi West 4.6 mph - N/A   Clear
7:27 AM 41.0 °F 38.0 °F 41.0 °F 100% 30.23 in 1.0 mi West 4.6 mph - N/A   Clear
7:29 AM 41.0 °F 38.0 °F 41.0 °F 100% 30.23 in 1.2 mi West 4.6 mph - N/A   Clear
7:32 AM 42.8 °F 40.1 °F 42.8 °F 100% 30.23 in 1.5 mi West 4.6 mph - N/A   Clear
7:34 AM 42.8 °F 40.1 °F 42.8 °F 100% 30.23 in 1.8 mi West 4.6 mph - N/A   Clear
7:35 AM 42.8 °F 40.1 °F 42.8 °F 100% 30.23 in 2.0 mi West 4.6 mph - N/A   Clear
7:36 AM 42.8 °F 40.1 °F 42.8 °F 100% 30.23 in 2.5 mi West 4.6 mph - N/A   Clear
7:37 AM 42.8 °F 40.1 °F 42.8 °F 100% 30.23 in 3.0 mi West 4.6 mph - N/A   Clear
7:55 AM 46.4 °F 44.3 °F 46.4 °F 100% 30.23 in 10.0 mi WNW 4.6 mph - N/A   Clear
8:15 AM 48.2 °F - 48.2 °F 100% 30.24 in 10.0 mi WNW 4.6 mph - N/A   Partly Cloudy
8:55 AM 51.3 °F - 51.3 °F 100% 30.24 in 10.0 mi WNW 3.5 mph - N/A   Clear
9:55 AM 55.0 °F - 55.0 °F 100% 30.24 in 10.0 mi Calm Calm - N/A   Clear
10:55 AM 59.7 °F - 49.5 °F 69% 30.24 in 10.0 mi Variable 3.5 mph - N/A   Mostly Cloudy
11:55 AM 62.1 °F - 46.4 °F 56% 30.23 in 10.0 mi NNW 6.9 mph - N/A   Scattered Clouds
12:55 PM 63.9 °F - 48.0 °F 56% 30.21 in 10.0 mi Variable 4.6 mph - N/A   Partly Cloudy
1:55 PM 64.0 °F - 46.8 °F 53% 30.20 in 10.0 mi NNW 9.2 mph - N/A   Mostly Cloudy
2:55 PM 65.3 °F - 46.0 °F 50% 30.18 in 10.0 mi NNW 5.8 mph - N/A   Scattered Clouds
3:55 PM 63.0 °F - 45.3 °F 53% 30.16 in 10.0 mi Variable 5.8 mph - N/A   Partly Cloudy
4:55 PM 64.0 °F - 48.0 °F 56% 30.16 in 10.0 mi North 8.1 mph - N/A   Scattered Clouds
5:55 PM 64.0 °F - 45.9 °F 52% 30.16 in 10.0 mi NNW 8.1 mph - N/A   Partly Cloudy
6:55 PM 59.9 °F - 49.8 °F 69% 30.17 in 10.0 mi Calm Calm - N/A   Clear
7:55 PM 51.6 °F - 51.3 °F 99% 30.17 in 6.0 mi Calm Calm - N/A   Clear
8:55 PM 46.0 °F - 46.0 °F 100% 30.19 in 10.0 mi Calm Calm - N/A   Clear
9:02 PM 44.6 °F - 44.6 °F 100% 30.19 in 2.5 mi Calm Calm - N/A   Clear
9:07 PM 44.6 °F - 44.6 °F 100% 30.18 in 2.0 mi Calm Calm - N/A   Clear
9:08 PM 44.6 °F - 44.6 °F 100% 30.19 in 1.8 mi Calm Calm - N/A   Clear
9:10 PM 44.6 °F - 44.6 °F 100% 30.19 in 2.0 mi Calm Calm - N/A   Clear
9:11 PM 44.6 °F - 44.6 °F 100% 30.19 in 2.5 mi Calm Calm - N/A   Clear
9:14 PM 44.6 °F - 44.6 °F 100% 30.19 in 3.0 mi Calm Calm - N/A   Clear
9:24 PM 42.8 °F - 42.8 °F 100% 30.19 in 2.5 mi Calm Calm - N/A   Clear
9:25 PM 42.8 °F - 42.8 °F 100% 30.19 in 2.0 mi Calm Calm - N/A   Clear
9:26 PM 42.8 °F - 42.8 °F 100% 30.19 in 1.8 mi Calm Calm - N/A   Clear
9:27 PM 42.8 °F - 42.8 °F 100% 30.19 in 1.5 mi Calm Calm - N/A   Clear
9:28 PM 42.8 °F - 42.8 °F 100% 30.19 in 1.2 mi Calm Calm - N/A   Clear
9:30 PM 42.8 °F - 42.8 °F 100% 30.19 in 1.0 mi Calm Calm - N/A   Clear
9:36 PM 42.8 °F - 42.8 °F 100% 30.19 in 0.8 mi Calm Calm - N/A   Clear
9:50 PM 44.6 °F - 44.6 °F 100% 30.19 in 1.0 mi Calm Calm - N/A   Clear
9:52 PM 44.6 °F - 44.6 °F 100% 30.19 in 1.2 mi Calm Calm - N/A   Clear
9:54 PM 44.6 °F - 44.6 °F 100% 30.19 in 1.5 mi Calm Calm - N/A   Clear
9:55 PM 45.3 °F - 45.3 °F 100% 30.19 in 1.5 mi Calm Calm - N/A   Clear
9:56 PM 44.6 °F - 44.6 °F 100% 30.19 in 1.2 mi Calm Calm - N/A   Clear
9:58 PM 44.6 °F - 44.6 °F 100% 30.19 in 1.0 mi Calm Calm - N/A   Clear
10:05 PM 44.6 °F - 44.6 °F 100% 30.19 in 1.2 mi Calm Calm - N/A   Clear
10:06 PM 44.6 °F - 44.6 °F 100% 30.19 in 1.8 mi Calm Calm - N/A   Clear
10:07 PM 44.6 °F - 44.6 °F 100% 30.19 in 2.0 mi Calm Calm - N/A   Clear
10:08 PM 44.6 °F - 44.6 °F 100% 30.19 in 2.5 mi Calm Calm - N/A   Clear
10:09 PM 44.6 °F - 44.6 °F 100% 30.19 in 4.0 mi Calm Calm - N/A   Clear
10:33 PM 42.8 °F - 42.8 °F 100% 30.19 in 2.5 mi Calm Calm - N/A   Clear
10:34 PM 42.8 °F - 42.8 °F 100% 30.19 in 2.0 mi Calm Calm - N/A   Clear
10:36 PM 42.8 °F - 42.8 °F 100% 30.19 in 1.8 mi Calm Calm - N/A   Clear
10:38 PM 42.8 °F - 42.8 °F 100% 30.19 in 1.5 mi Calm Calm - N/A   Clear
10:40 PM 42.8 °F - 42.8 °F 100% 30.19 in 1.2 mi Calm Calm - N/A   Clear
10:45 PM 42.8 °F - 42.8 °F 100% 30.19 in 1.0 mi Calm Calm - N/A   Clear
10:48 PM 42.8 °F - 42.8 °F 100% 30.19 in 0.8 mi Calm Calm - N/A   Clear
10:55 PM 41.9 °F - 41.9 °F 100% 30.19 in 0.8 mi Calm Calm - N/A   Clear
11:04 PM 42.8 °F - 42.8 °F 100% 30.19 in 1.0 mi Calm Calm - N/A   Clear
11:06 PM 42.8 °F - 42.8 °F 100% 30.19 in 1.2 mi Calm Calm - N/A   Clear
11:08 PM 42.8 °F - 42.8 °F 100% 30.19 in 1.5 mi Calm Calm - N/A   Clear
11:09 PM 42.8 °F - 42.8 °F 100% 30.20 in 2.0 mi Calm Calm - N/A   Clear
11:10 PM 42.8 °F - 42.8 °F 100% 30.20 in 3.0 mi Calm Calm - N/A   Clear
11:13 PM 42.8 °F - 42.8 °F 100% 30.20 in 2.5 mi Calm Calm - N/A   Clear
11:14 PM 42.8 °F - 42.8 °F 100% 30.20 in 2.0 mi Calm Calm - N/A   Clear
11:15 PM 42.8 °F - 42.8 °F 100% 30.20 in 1.5 mi Calm Calm - N/A   Clear
11:16 PM 42.8 °F - 42.8 °F 100% 30.20 in 1.2 mi Calm Calm - N/A   Clear
11:18 PM 42.8 °F - 42.8 °F 100% 30.20 in 1.0 mi Calm Calm - N/A   Clear
11:20 PM 42.8 °F - 42.8 °F 100% 30.20 in 0.8 mi Calm Calm - N/A   Clear
11:44 PM 41.0 °F - 41.0 °F 100% 30.20 in 0.5 mi Calm Calm - N/A Fog Fog
11:55 PM 39.4 °F - 39.4 °F 100% 30.20 in 0.5 mi Calm Calm - N/A Fog Fog